Station Historical Data
Daily Summary for November 15, 2017 Units:  Metric    English   Both
« Previous Day
Next Day »
Daily Weekly Monthly Yearly Custom
  High: Low: Average:
Temperature: 8.6 °C -1.8 °C 4.2 °C
Dew Point: 4.6 °C -3.3 °C -0.6 °C
Humidity: 91% 54% 73%
Wind Speed: 17.7km/h 0km/h 3.9km/h
Wind Gust: 35.4km/h - -
Wind- - SSE
Pressure: 1026 hPa 1006.3 hPa -
Precipitation: 0 mm    
Historical Graphs
 
 
Tabular Data for November 15, 2017
Time Temperature Dew Point Pressure Wind Wind Speed Wind Gust Humidity Rainfall Rate (Hourly)
00:04 -0.4 °C -2.1 °C 1026 hPa Calm     89% 0 mm
00:09 -0.5 °C -2.1 °C 1026 hPa Calm     89% 0 mm
00:14 -0.6 °C -2.2 °C 1026 hPa Calm     89% 0 mm
00:19 -0.6 °C -2.2 °C 1026 hPa Calm     89% 0 mm
00:24 -0.7 °C -2.3 °C 1026 hPa Calm     89% 0 mm
00:34 -0.7 °C -2.3 °C 1026 hPa Calm     89% 0 mm
00:39 -0.8 °C -2.4 °C 1026 hPa Calm     89% 0 mm
00:44 -0.8 °C -2.4 °C 1026 hPa Calm     89% 0 mm
00:49 -1 °C -2.6 °C 1026 hPa Calm     89% 0 mm
00:54 -1.1 °C -2.7 °C 1025.6 hPa Calm     89% 0 mm
00:59 -1.1 °C -2.7 °C 1026 hPa Calm     89% 0 mm
01:04 -1.1 °C -2.6 °C 1025.6 hPa Calm     90% 0 mm
01:09 -1.2 °C -2.8 °C 1025.6 hPa Calm     89% 0 mm
01:14 -1.2 °C -2.6 °C 1025.6 hPa Calm     90% 0 mm
01:19 -1.3 °C -2.7 °C 1025.6 hPa Calm     90% 0 mm
01:24 -1.3 °C -2.8 °C 1025.6 hPa Calm     90% 0 mm
01:29 -1.4 °C -2.8 °C 1025.6 hPa Calm     90% 0 mm
01:34 -1.4 °C -2.8 °C 1025.6 hPa Calm     90% 0 mm
01:39 -1.4 °C -2.8 °C 1025.3 hPa Calm     90% 0 mm
01:44 -1.4 °C -2.8 °C 1025.3 hPa Calm     90% 0 mm
01:49 -1.4 °C -2.8 °C 1025.3 hPa Calm     90% 0 mm
01:54 -1.4 °C -2.9 °C 1025.3 hPa Calm     90% 0 mm
01:59 -1.4 °C -2.9 °C 1024.9 hPa Calm     90% 0 mm
02:04 -1.4 °C -2.9 °C 1024.9 hPa Calm     90% 0 mm
02:09 -1.4 °C -2.8 °C 1024.9 hPa Calm     90% 0 mm
02:14 -1.4 °C -2.8 °C 1024.9 hPa Calm     90% 0 mm
02:19 -1.3 °C -2.8 °C 1025.3 hPa Calm     90% 0 mm
02:24 -1.4 °C -2.8 °C 1025.3 hPa Calm     90% 0 mm
02:29 -1.5 °C -2.9 °C 1025.3 hPa Calm     90% 0 mm
02:34 -1.6 °C -3.1 °C 1025.6 hPa Calm     90% 0 mm
02:39 -1.6 °C -3.1 °C 1025.6 hPa Calm     90% 0 mm
02:44 -1.7 °C -3.1 °C 1025.3 hPa Calm     90% 0 mm
02:49 -1.7 °C -2.9 °C 1025.3 hPa Calm     91% 0 mm
02:54 -1.7 °C -2.9 °C 1025.3 hPa Calm     91% 0 mm
02:59 -1.6 °C -2.8 °C 1025.3 hPa Calm     91% 0 mm
03:04 -1.6 °C -3 °C 1024.9 hPa Calm     90% 0 mm
03:09 -1.6 °C -2.8 °C 1024.9 hPa Calm     91% 0 mm
03:14 -1.6 °C -3.1 °C 1024.9 hPa Calm     90% 0 mm
03:19 -1.7 °C -2.9 °C 1024.9 hPa Calm     91% 0 mm
03:24 -1.7 °C -2.9 °C 1024.6 hPa Calm     91% 0 mm
03:29 -1.7 °C -2.9 °C 1024.6 hPa Calm     91% 0 mm
03:34 -1.7 °C -3.1 °C 1024.6 hPa Calm     90% 0 mm
03:39 -1.7 °C -2.9 °C 1024.3 hPa Calm     91% 0 mm
03:49 -1.7 °C -3.1 °C 1024.3 hPa Calm     90% 0 mm
03:54 -1.7 °C -3.2 °C 1024.3 hPa Calm     90% 0 mm
03:59 -1.7 °C -3.2 °C 1024.3 hPa Calm     90% 0 mm
04:04 -1.8 °C -3.2 °C 1024.3 hPa Calm     90% 0 mm
04:09 -1.8 °C -3.1 °C 1024.3 hPa Calm     91% 0 mm
04:14 -1.7 °C -3 °C 1024.6 hPa Calm     91% 0 mm
04:19 -1.7 °C -3 °C 1024.6 hPa Calm     91% 0 mm
04:24 -1.7 °C -2.9 °C 1024.6 hPa Calm     91% 0 mm
04:29 -1.7 °C -3.1 °C 1024.6 hPa Calm     90% 0 mm
04:34 -1.7 °C -3.1 °C 1024.6 hPa Calm     90% 0 mm
04:39 -1.8 °C -3.2 °C 1024.6 hPa Calm     90% 0 mm
04:44 -1.8 °C -3.3 °C 1024.6 hPa Calm     90% 0 mm
04:49 -1.8 °C -3.3 °C 1024.6 hPa Calm     90% 0 mm
04:54 -1.8 °C -3.1 °C 1024.3 hPa Calm     91% 0 mm
04:59 -1.8 °C -3.2 °C 1024.3 hPa Calm     90% 0 mm
05:04 -1.7 °C -3.2 °C 1024.3 hPa Calm     90% 0 mm
05:09 -1.7 °C -3.1 °C 1024.3 hPa Calm     90% 0 mm
05:14 -1.7 °C -3.2 °C 1024.3 hPa Calm     90% 0 mm
05:19 -1.8 °C -3.2 °C 1024.3 hPa Calm     90% 0 mm
05:24 -1.7 °C -3.2 °C 1023.9 hPa Calm     90% 0 mm
05:29 -1.7 °C -3.2 °C 1023.9 hPa Calm     90% 0 mm
05:34 -1.7 °C -3.1 °C 1023.6 hPa Calm     90% 0 mm
05:39 -1.7 °C -3.1 °C 1023.6 hPa Calm     90% 0 mm
05:44 -1.7 °C -3.1 °C 1023.6 hPa Calm     90% 0 mm
05:49 -1.7 °C -3.1 °C 1023.6 hPa Calm     90% 0 mm
05:54 -1.7 °C -3.1 °C 1023.9 hPa Calm     90% 0 mm
05:59 -1.7 °C -3.1 °C 1023.9 hPa Calm     90% 0 mm
06:04 -1.8 °C -3.2 °C 1023.9 hPa Calm     90% 0 mm
06:09 -1.7 °C -3.1 °C 1023.9 hPa Calm     90% 0 mm
06:14 -1.7 °C -3.1 °C 1023.9 hPa Calm     90% 0 mm
06:19 -1.7 °C -3.2 °C 1023.9 hPa Calm     90% 0 mm
06:24 -1.7 °C -3.1 °C 1023.6 hPa Calm     90% 0 mm
06:29 -1.6 °C -3.1 °C 1023.6 hPa Calm     90% 0 mm
06:34 -1.6 °C -3 °C 1023.6 hPa Calm     90% 0 mm
06:39 -1.6 °C -3 °C 1023.6 hPa Calm     90% 0 mm
06:44 -1.4 °C -2.9 °C 1023.6 hPa Calm     90% 0 mm
06:49 -1.4 °C -3 °C 1023.6 hPa Calm     89% 0 mm
06:54 -1.4 °C -2.9 °C 1023.6 hPa Calm     89% 0 mm
06:59 -1.4 °C -2.9 °C 1023.6 hPa Calm     89% 0 mm
07:04 -1.3 °C -2.9 °C 1023.2 hPa Calm     89% 0 mm
07:09 -1.4 °C -2.9 °C 1023.2 hPa Calm     89% 0 mm
07:14 -1.3 °C -2.9 °C 1023.2 hPa Calm     89% 0 mm
07:19 -1.2 °C -2.8 °C 1022.9 hPa Calm   8 km/h 89% 0 mm
07:29 -1.1 °C -2.6 °C 1022.9 hPa Calm   3.2 km/h 89% 0 mm
07:34 -0.9 °C -2.5 °C 1022.9 hPa Calm   4.8 km/h 89% 0 mm
07:39 -0.7 °C -2.3 °C 1022.6 hPa ESE 1.6 km/h 4.8 km/h 89% 0 mm
07:44 -0.6 °C -2.3 °C 1022.6 hPa Calm   4.8 km/h 88% 0 mm
07:49 -0.4 °C -2.2 °C 1022.6 hPa East 1.6 km/h 4.8 km/h 88% 0 mm
07:54 -0.3 °C -2 °C 1022.6 hPa Calm   8 km/h 88% 0 mm
07:59 -0.2 °C -2.1 °C 1022.9 hPa Calm   1.6 km/h 87% 0 mm
08:04 -0.1 °C -1.9 °C 1022.9 hPa Calm   6.4 km/h 87% 0 mm
08:09 0.1 °C -1.8 °C 1022.9 hPa Calm   6.4 km/h 87% 0 mm
08:14 0.2 °C -1.8 °C 1022.6 hPa Calm   4.8 km/h 86% 0 mm
08:19 0.3 °C -1.7 °C 1022.6 hPa ESE 1.6 km/h 6.4 km/h 86% 0 mm
08:24 0.4 °C -1.6 °C 1022.6 hPa SE 1.6 km/h 6.4 km/h 86% 0 mm
08:29 0.6 °C -1.7 °C 1022.6 hPa Calm   4.8 km/h 85% 0 mm
08:34 0.8 °C -1.4 °C 1022.6 hPa Calm   4.8 km/h 85% 0 mm
08:39 1 °C -1.2 °C 1022.6 hPa Calm   4.8 km/h 85% 0 mm
08:44 1.1 °C -1.3 °C 1022.6 hPa Calm   1.6 km/h 84% 0 mm
08:49 1.3 °C -1.1 °C 1022.6 hPa South 3.2 km/h 4.8 km/h 84% 0 mm
08:54 1.6 °C -0.9 °C 1022.6 hPa SSE 1.6 km/h 9.7 km/h 83% 0 mm
08:59 1.9 °C -0.8 °C 1022.6 hPa Calm   8 km/h 82% 0 mm
09:04 2.3 °C -0.7 °C 1022.2 hPa SSE 1.6 km/h 9.7 km/h 81% 0 mm
09:09 2.6 °C -0.6 °C 1022.2 hPa SE 3.2 km/h 9.7 km/h 80% 0 mm
09:14 3 °C -0.3 °C 1021.9 hPa SE 3.2 km/h 9.7 km/h 79% 0 mm
09:19 3.4 °C -0.1 °C 1021.6 hPa SE 1.6 km/h 8 km/h 78% 0 mm
09:24 3.7 °C -0.2 °C 1021.6 hPa SE 3.2 km/h 9.7 km/h 76% 0 mm
09:29 3.8 °C -0.2 °C 1021.6 hPa SE 4.8 km/h 12.9 km/h 75% 0 mm
09:34 4 °C -0.1 °C 1021.6 hPa SSE 4.8 km/h 12.9 km/h 75% 0 mm
09:39 4.2 °C -0.2 °C 1021.2 hPa SSE 4.8 km/h 12.9 km/h 73% 0 mm
09:44 4.5 °C 0.1 °C 1021.2 hPa Calm   12.9 km/h 73% 0 mm
09:49 4.8 °C 0.2 °C 1021.2 hPa SE 4.8 km/h 6.4 km/h 72% 0 mm
09:54 5.1 °C 0.1 °C 1020.9 hPa SE 4.8 km/h 9.7 km/h 70% 0 mm
09:59 5.2 °C -0.1 °C 1020.9 hPa SE 3.2 km/h 12.9 km/h 69% 0 mm
10:04 5.2 °C -0.3 °C 1020.5 hPa South 1.6 km/h 12.9 km/h 68% 0 mm
10:09 5.3 °C -0.3 °C 1020.5 hPa SE 11.3 km/h 12.9 km/h 67% 0 mm
10:14 5.3 °C -0.3 °C 1020.5 hPa SSE 8 km/h 14.5 km/h 67% 0 mm
10:19 5.4 °C -0.2 °C 1020.2 hPa SSE 8 km/h 14.5 km/h 67% 0 mm
10:24 5.7 °C 0.3 °C 1020.2 hPa SSE 4.8 km/h 11.3 km/h 68% 0 mm
10:29 5.6 °C -0.3 °C 1020.2 hPa SSE 4.8 km/h 12.9 km/h 66% 0 mm
10:34 5.8 °C -0.1 °C 1019.9 hPa SSE 4.8 km/h 9.7 km/h 66% 0 mm
10:39 5.8 °C -0.3 °C 1019.9 hPa SSW 4.8 km/h 8 km/h 65% 0 mm
10:44 5.9 °C 0.1 °C 1019.9 hPa South 3.2 km/h 8 km/h 66% 0 mm
10:49 6 °C -0.1 °C 1019.9 hPa SSE 3.2 km/h 8 km/h 65% 0 mm
10:54 6.1 °C -0.2 °C 1019.5 hPa SSE 4.8 km/h 11.3 km/h 64% 0 mm
10:59 6.4 °C 0.3 °C 1019.5 hPa South 3.2 km/h 9.7 km/h 65% 0 mm
11:04 6.7 °C 0.4 °C 1019.2 hPa SE 8 km/h 9.7 km/h 64% 0 mm
11:09 6.6 °C -0.2 °C 1019.2 hPa South 4.8 km/h 11.3 km/h 62% 0 mm
11:14 6.4 °C -0.3 °C 1018.8 hPa SSW 6.4 km/h 14.5 km/h 62% 0 mm
11:19 6.6 °C 0 °C 1018.8 hPa SSE 6.4 km/h 14.5 km/h 63% 0 mm
11:24 6.8 °C 0.3 °C 1018.8 hPa SSE 3.2 km/h 11.3 km/h 63% 0 mm
11:29 6.6 °C -0.2 °C 1018.5 hPa SSE 4.8 km/h 16.1 km/h 62% 0 mm
11:34 6.6 °C -0.2 °C 1018.2 hPa SSE 3.2 km/h 11.3 km/h 62% 0 mm
11:39 6.8 °C 0.3 °C 1018.2 hPa SSE 4.8 km/h 12.9 km/h 63% 0 mm
11:44 6.7 °C -0.1 °C 1017.8 hPa SSE 4.8 km/h 14.5 km/h 62% 0 mm
11:49 6.6 °C -0.2 °C 1017.8 hPa SE 6.4 km/h 11.3 km/h 62% 0 mm
11:54 6.6 °C -0.2 °C 1017.5 hPa SSE 6.4 km/h 11.3 km/h 62% 0 mm
11:59 6.6 °C 0.1 °C 1017.5 hPa SSE 4.8 km/h 11.3 km/h 63% 0 mm
12:04 6.6 °C -0.2 °C 1017.2 hPa SSE 4.8 km/h 11.3 km/h 62% 0 mm
12:09 6.7 °C 0.2 °C 1017.2 hPa SSW 1.6 km/h 11.3 km/h 63% 0 mm
12:14 6.9 °C 0.3 °C 1017.2 hPa SE 6.4 km/h 12.9 km/h 63% 0 mm
12:19 6.9 °C 0.3 °C 1016.8 hPa ENE 1.6 km/h 12.9 km/h 63% 0 mm
12:24 7.1 °C 0.3 °C 1016.8 hPa SE 4.8 km/h 12.9 km/h 62% 0 mm
12:29 7.2 °C 0.2 °C 1016.5 hPa SSE 4.8 km/h 14.5 km/h 61% 0 mm
12:34 7.4 °C 0.3 °C 1016.5 hPa SSE 4.8 km/h 14.5 km/h 61% 0 mm
12:39 7.5 °C 0.4 °C 1016.5 hPa SE 6.4 km/h 8 km/h 61% 0 mm
12:44 7.4 °C 0.4 °C 1016.5 hPa SE 1.6 km/h 8 km/h 61% 0 mm
12:49 7.4 °C 0.4 °C 1016.5 hPa SE 4.8 km/h 9.7 km/h 61% 0 mm
12:54 7.6 °C 0.7 °C 1016.1 hPa SE 3.2 km/h 9.7 km/h 62% 0 mm
12:59 7.8 °C 0.6 °C 1016.1 hPa SE 3.2 km/h 9.7 km/h 60% 0 mm
13:04 7.8 °C 0.5 °C 1016.1 hPa ESE 3.2 km/h 9.7 km/h 60% 0 mm
13:09 7.8 °C 0.6 °C 1015.8 hPa East 8 km/h 11.3 km/h 60% 0 mm
13:14 7.8 °C 0.3 °C 1015.8 hPa SE 4.8 km/h 11.3 km/h 59% 0 mm
13:19 7.9 °C 0.4 °C 1015.8 hPa SE 3.2 km/h 12.9 km/h 59% 0 mm
13:24 7.9 °C 0.4 °C 1015.5 hPa SE 1.6 km/h 8 km/h 59% 0 mm
13:29 7.9 °C 0.4 °C 1015.5 hPa SSE 4.8 km/h 12.9 km/h 59% 0 mm
13:34 8 °C 0.2 °C 1015.1 hPa ESE 3.2 km/h 11.3 km/h 58% 0 mm
13:39 8 °C 0.2 °C 1015.1 hPa SSE 3.2 km/h 11.3 km/h 58% 0 mm
13:44 8.1 °C 0.3 °C 1015.1 hPa SE 4.8 km/h 8 km/h 58% 0 mm
13:49 8.2 °C 0.4 °C 1015.1 hPa SSE 3.2 km/h 8 km/h 58% 0 mm
13:54 8.3 °C 0.6 °C 1014.8 hPa SE 4.8 km/h 9.7 km/h 58% 0 mm
13:59 8.3 °C 0.2 °C 1014.8 hPa SE 9.7 km/h 9.7 km/h 57% 0 mm
14:04 8.3 °C 0.5 °C 1014.8 hPa SE 3.2 km/h 9.7 km/h 58% 0 mm
14:09 8.3 °C 0.2 °C 1014.8 hPa SE 3.2 km/h 9.7 km/h 57% 0 mm
14:14 8.3 °C 0.6 °C 1014.8 hPa SE 3.2 km/h 9.7 km/h 58% 0 mm
14:19 8.3 °C 0.3 °C 1014.4 hPa SSE 3.2 km/h 6.4 km/h 57% 0 mm
14:24 8.4 °C 0.3 °C 1014.4 hPa SSE 3.2 km/h 8 km/h 57% 0 mm
14:29 8.5 °C 0.2 °C 1014.4 hPa Calm   6.4 km/h 56% 0 mm
14:39 8.5 °C 0.4 °C 1014.1 hPa SE 1.6 km/h 3.2 km/h 57% 0 mm
14:44 8.5 °C 0.4 °C 1014.1 hPa Calm   4.8 km/h 57% 0 mm
14:49 8.4 °C 0.4 °C 1013.8 hPa SE 1.6 km/h 6.4 km/h 57% 0 mm
14:59 8.5 °C 0.2 °C 1013.4 hPa Calm   8 km/h 56% 0 mm
15:04 8.5 °C 0.4 °C 1013.4 hPa SE 3.2 km/h 4.8 km/h 57% 0 mm
15:09 8.5 °C 0.2 °C 1013.4 hPa SE 1.6 km/h 8 km/h 56% 0 mm
15:14 8.6 °C 0.5 °C 1013.4 hPa SE 1.6 km/h 8 km/h 57% 0 mm
15:19 8.6 °C 0.3 °C 1013.4 hPa Calm   3.2 km/h 56% 0 mm
15:24 8.5 °C 0.4 °C 1013.4 hPa SSE 1.6 km/h 4.8 km/h 57% 0 mm
15:29 8.5 °C 0.4 °C 1013.1 hPa SSE 1.6 km/h 6.4 km/h 57% 0 mm
15:34 8.5 °C 0.2 °C 1013.1 hPa SE 1.6 km/h 6.4 km/h 56% 0 mm
15:39 8.4 °C 0.4 °C 1013.1 hPa Calm   6.4 km/h 57% 0 mm
15:44 8.4 °C 0.2 °C 1013.1 hPa SE 1.6 km/h 6.4 km/h 56% 0 mm
15:49 8.4 °C 0.3 °C 1013.1 hPa SE 3.2 km/h 6.4 km/h 57% 0 mm
15:54 8.4 °C 0.1 °C 1013.4 hPa South 1.6 km/h 6.4 km/h 56% 0 mm
15:59 8.3 °C 0.3 °C 1013.1 hPa SSE 3.2 km/h 6.4 km/h 57% 0 mm
16:04 8.3 °C 0.3 °C 1013.4 hPa South 3.2 km/h 6.4 km/h 57% 0 mm
16:09 8.3 °C 0.5 °C 1013.1 hPa South 3.2 km/h 6.4 km/h 58% 0 mm
16:14 8.2 °C 0.2 °C 1013.1 hPa SSE 8 km/h 8 km/h 57% 0 mm
16:19 8.3 °C 0.2 °C 1012.8 hPa South 3.2 km/h 9.7 km/h 57% 0 mm
16:24 8.3 °C 0.3 °C 1012.8 hPa SSE 4.8 km/h 9.7 km/h 57% 0 mm
16:29 8.3 °C 0 °C 1012.4 hPa SSE 4.8 km/h 9.7 km/h 56% 0 mm
16:34 8.3 °C 0 °C 1012.4 hPa SSE 4.8 km/h 9.7 km/h 56% 0 mm
16:39 8.2 °C -0.1 °C 1012.4 hPa SSE 4.8 km/h 9.7 km/h 56% 0 mm
16:44 8.2 °C -0.1 °C 1012.1 hPa SSE 8 km/h 9.7 km/h 56% 0 mm
16:49 8.2 °C -0.1 °C 1012.1 hPa SSE 4.8 km/h 11.3 km/h 56% 0 mm
16:54 8.1 °C -0.2 °C 1012.1 hPa SSE 4.8 km/h 8 km/h 56% 0 mm
16:59 8.1 °C -0.2 °C 1012.1 hPa SSE 4.8 km/h 8 km/h 56% 0 mm
17:04 8.1 °C -0.2 °C 1012.1 hPa SSE 3.2 km/h 8 km/h 56% 0 mm
17:09 8.1 °C -0.2 °C 1012.1 hPa South 4.8 km/h 8 km/h 56% 0 mm
17:14 8.1 °C -0.2 °C 1011.4 hPa SSE 6.4 km/h 11.3 km/h 56% 0 mm
17:19 8.1 °C -0.4 °C 1011.7 hPa SSE 4.8 km/h 11.3 km/h 55% 0 mm
17:24 8.1 °C -0.2 °C 1011.7 hPa SSE 3.2 km/h 8 km/h 56% 0 mm
17:29 8.1 °C -0.2 °C 1011.7 hPa SSE 3.2 km/h 11.3 km/h 56% 0 mm
17:34 8.1 °C -0.2 °C 1011.4 hPa SE 3.2 km/h 11.3 km/h 56% 0 mm
17:39 8 °C -0.3 °C 1011.4 hPa South 3.2 km/h 6.4 km/h 56% 0 mm
17:44 7.9 °C -0.3 °C 1011.1 hPa Calm   6.4 km/h 56% 0 mm
17:49 7.9 °C -0.3 °C 1011.4 hPa Calm   6.4 km/h 56% 0 mm
17:54 7.8 °C -0.4 °C 1011.4 hPa SSE 1.6 km/h 9.7 km/h 56% 0 mm
17:59 7.8 °C -0.4 °C 1011.7 hPa South 1.6 km/h 9.7 km/h 56% 0 mm
18:04 7.7 °C -0.3 °C 1011.4 hPa SSW 3.2 km/h 6.4 km/h 57% 0 mm
18:09 7.7 °C -0.3 °C 1011.4 hPa SSW 3.2 km/h 11.3 km/h 57% 0 mm
18:14 7.7 °C -0.3 °C 1011.1 hPa South 6.4 km/h 11.3 km/h 57% 0 mm
18:19 7.7 °C -0.3 °C 1011.1 hPa SSW 11.3 km/h 12.9 km/h 57% 0 mm
18:24 7.8 °C -0.2 °C 1010.7 hPa South 4.8 km/h 17.7 km/h 57% 0 mm
18:29 7.8 °C -0.4 °C 1010.7 hPa South 6.4 km/h 17.7 km/h 56% 0 mm
18:34 7.8 °C -0.4 °C 1010.7 hPa South 6.4 km/h 14.5 km/h 56% 0 mm
18:39 7.8 °C -0.4 °C 1010.7 hPa SSW 6.4 km/h 12.9 km/h 56% 0 mm
18:44 7.8 °C -0.4 °C 1010.4 hPa SSE 4.8 km/h 19.3 km/h 56% 0 mm
18:49 7.9 °C -0.3 °C 1010.4 hPa SW 6.4 km/h 11.3 km/h 56% 0 mm
18:54 7.9 °C -0.3 °C 1010.4 hPa South 6.4 km/h 14.5 km/h 56% 0 mm
18:59 7.9 °C -0.3 °C 1010.4 hPa South 8 km/h 17.7 km/h 56% 0 mm
19:04 8 °C -0.5 °C 1010.4 hPa South 9.7 km/h 25.7 km/h 55% 0 mm
19:09 8.1 °C -0.7 °C 1010 hPa South 9.7 km/h 25.7 km/h 54% 0 mm
19:14 8.1 °C -0.7 °C 1010 hPa South 9.7 km/h 25.7 km/h 54% 0 mm
19:19 8.1 °C -0.4 °C 1010 hPa South 9.7 km/h 25.7 km/h 55% 0 mm
19:24 8 °C -0.5 °C 1010 hPa South 4.8 km/h 20.9 km/h 55% 0 mm
19:29 7.9 °C -0.6 °C 1010 hPa SSW 9.7 km/h 17.7 km/h 55% 0 mm
19:34 7.9 °C -0.6 °C 1009.7 hPa SSW 8 km/h 17.7 km/h 55% 0 mm
19:39 7.9 °C -0.3 °C 1009.7 hPa South 12.9 km/h 17.7 km/h 56% 0 mm
19:44 7.9 °C -0.3 °C 1009.7 hPa SSW 6.4 km/h 25.7 km/h 56% 0 mm
19:49 7.9 °C -0.3 °C 1009.4 hPa South 4.8 km/h 22.5 km/h 56% 0 mm
19:54 7.8 °C -0.4 °C 1009.4 hPa South 8 km/h 22.5 km/h 56% 0 mm
19:59 7.8 °C -0.4 °C 1009.4 hPa South 8 km/h 24.1 km/h 56% 0 mm
20:04 7.9 °C -0.1 °C 1009.4 hPa South 9.7 km/h 24.1 km/h 57% 0 mm
20:09 7.9 °C -0.1 °C 1009 hPa South 9.7 km/h 20.9 km/h 57% 0 mm
20:14 7.9 °C 0.2 °C 1009 hPa South 9.7 km/h 24.1 km/h 58% 0 mm
20:19 7.9 °C 0.1 °C 1009 hPa SSE 9.7 km/h 19.3 km/h 58% 0 mm
20:24 7.8 °C 0.1 °C 1008.7 hPa SSW 16.1 km/h 20.9 km/h 58% 0 mm
20:29 7.8 °C 0.3 °C 1008.4 hPa SSW 8 km/h 24.1 km/h 59% 0 mm
20:34 7.8 °C 0.5 °C 1008.4 hPa South 9.7 km/h 25.7 km/h 60% 0 mm
20:39 7.7 °C 0.7 °C 1008.4 hPa SSW 12.9 km/h 22.5 km/h 61% 0 mm
20:44 7.7 °C 0.8 °C 1008.4 hPa SSE 8 km/h 17.7 km/h 62% 0 mm
20:49 7.6 °C 1 °C 1008.4 hPa South 9.7 km/h 27.4 km/h 63% 0 mm
20:54 7.6 °C 1 °C 1008 hPa South 9.7 km/h 27.4 km/h 63% 0 mm
20:59 7.6 °C 1 °C 1008 hPa South 9.7 km/h 25.7 km/h 63% 0 mm
21:04 7.7 °C 1.1 °C 1008 hPa South 9.7 km/h 25.7 km/h 63% 0 mm
21:09 7.8 °C 1.4 °C 1008 hPa SSW 16.1 km/h 29 km/h 64% 0 mm
21:14 7.9 °C 1.3 °C 1008 hPa South 14.5 km/h 25.7 km/h 63% 0 mm
21:19 8 °C 1.4 °C 1007.7 hPa SSW 11.3 km/h 25.7 km/h 63% 0 mm
21:24 8.1 °C 1.4 °C 1007.7 hPa SSW 11.3 km/h 30.6 km/h 63% 0 mm
21:29 8.1 °C 1.7 °C 1007.7 hPa SSW 12.9 km/h 30.6 km/h 64% 0 mm
21:34 8.1 °C 2.1 °C 1007.7 hPa SSW 4.8 km/h 24.1 km/h 66% 0 mm
21:44 7.7 °C 2.4 °C 1007.3 hPa SSW 11.3 km/h 27.4 km/h 69% 0 mm
21:49 7.6 °C 2.5 °C 1007.3 hPa SSW 4.8 km/h 19.3 km/h 70% 0 mm
21:54 7.4 °C 2.7 °C 1007.3 hPa SSW 9.7 km/h 27.4 km/h 72% 0 mm
21:59 7.4 °C 2.9 °C 1007.3 hPa South 9.7 km/h 29 km/h 73% 0.25 mm
22:04 7.4 °C 2.9 °C 1007.3 hPa South 6.4 km/h 25.7 km/h 73% 0.25 mm
22:09 7.6 °C 3 °C 1007.3 hPa SSW 11.3 km/h 32.2 km/h 73% 0.25 mm
22:15 7.6 °C 3.3 °C 1007.3 hPa SSW 12.9 km/h 32.2 km/h 74% 0.25 mm
22:24 7.7 °C 3.3 °C 1007 hPa SSW 14.5 km/h 32.2 km/h 74% 0.25 mm
22:29 7.7 °C 3.5 °C 1007 hPa South 11.3 km/h 30.6 km/h 75% 0.25 mm
22:34 7.7 °C 3.5 °C 1007 hPa SSE 14.5 km/h 30.6 km/h 75% 0.25 mm
22:39 7.7 °C 3.5 °C 1006.7 hPa SSW 14.5 km/h 32.2 km/h 75% 0.25 mm
22:44 7.7 °C 3.5 °C 1007 hPa SSW 14.5 km/h 20.9 km/h 75% 0.25 mm
22:49 7.7 °C 3.8 °C 1007 hPa WSW 6.4 km/h 24.1 km/h 76% 0.25 mm
22:54 7.7 °C 3.8 °C 1006.7 hPa South 17.7 km/h 30.6 km/h 76% 0.25 mm
22:59 7.7 °C 3.9 °C 1006.7 hPa SSW 12.9 km/h 30.6 km/h 77% 0 mm
23:04 7.7 °C 3.9 °C 1006.7 hPa SSW 12.9 km/h 29 km/h 77% 0 mm
23:09 7.7 °C 4.1 °C 1006.7 hPa SSW 12.9 km/h 32.2 km/h 78% 0 mm
23:14 7.7 °C 4.1 °C 1006.7 hPa SSW 14.5 km/h 32.2 km/h 78% 0 mm
23:19 7.6 °C 4.2 °C 1006.7 hPa SSW 12.9 km/h 29 km/h 79% 0 mm
23:24 7.6 °C 4.2 °C 1006.7 hPa West 9.7 km/h 20.9 km/h 79% 0.25 mm
23:29 7.6 °C 4.3 °C 1006.7 hPa SSE 9.7 km/h 35.4 km/h 80% 0.25 mm
23:34 7.6 °C 4.4 °C 1006.7 hPa SSW 12.9 km/h 35.4 km/h 80% 0.25 mm
23:39 7.7 °C 4.3 °C 1006.7 hPa SSW 12.9 km/h 30.6 km/h 79% 0.25 mm
23:44 7.7 °C 4.4 °C 1006.3 hPa WSW 17.7 km/h 27.4 km/h 80% 0.25 mm
23:49 7.7 °C 4.4 °C 1006.3 hPa SSW 9.7 km/h 27.4 km/h 80% 0.25 mm
23:54 7.6 °C 4.4 °C 1006.3 hPa South 8 km/h 32.2 km/h 80% 0.25 mm
23:59 7.6 °C 4.6 °C 1006.3 hPa SE 6.4 km/h 30.6 km/h 81% 0.25 mm
Buffalo, New York, USA
Compliments of Weather Underground - 2.5 mb